Regional Weather Roundup
Issued by NWS

Home | Current Version | Previous Version | Text Only | Print | Product List | Glossary Off
Versions: 1 2 3 4 5 6 7 8 9 10 11 12 13 14 15 16 17 18 19 20 21 22 23 24 25 26 27 28 29 30 31 32 33 34 35 36 37 38 39 40 41 42 43 44 45 46 47 48 49 50

000
ASUS43 KMKX 041800
RWRWI

WISCONSIN REGIONAL WEATHER ROUNDUP
NATIONAL WEATHER SERVICE MILWAUKEE/SULLIVAN WI
100 PM CDT SAT JUL 04 2015

NOTE: "FAIR" INDICATES FEW OR NO CLOUDS BELOW 12,000 FEET WITH NO
SIGNIFICANT WEATHER AND/OR OBSTRUCTIONS TO VISIBILITY.

WIZ001-002-006>008-014>016-023>028-041900-
NORTHWEST WISCONSIN

CITY           SKY/WX    TMP DP  RH WIND       PRES   REMARKS
SUPERIOR ARPT  SUNNY     67  60  79 NE8       29.96F
ASHLAND        SUNNY     74  66  76 N7        29.96F
6HR MIN TEMP:  56; 6HR MAX TEMP:  74;

HAYWARD        MOSUNNY   80  55  42 SE6       29.96S HX  80
6HR MIN TEMP:  54; 6HR MAX TEMP:  81;

SIREN          SUNNY     81  54  39 CALM      29.94F HX  81
CUMBERLAND     SUNNY     77  57  50 SE6       29.96F
RICE LAKE      SUNNY     79  59  50 CALM      29.97F HAZE    HX  80
CHETEK         NOT AVBL
LADYSMITH      MOSUNNY   81  57  44 E3        29.98F HX  81
EAU CLAIRE     SUNNY     80  62  54 SW5       29.95S HAZE    HX  81
6HR MIN TEMP:  62; 6HR MAX TEMP:  80;

MENOMONIE      SUNNY     80  65  59 S5        29.96S HAZE    HX  82
NEW RICHMOND   SUNNY     80  63  56 S5        29.96R HAZE    HX  81
OSCEOLA        PTSUNNY   80  61  51 CALM      29.97S HAZE    HX  81
$$

WIZ003>005-009-010-017-018-041900-
NORTH CENTRAL WISCONSIN

CITY           SKY/WX    TMP DP  RH WIND       PRES   REMARKS
MANITOWISH WTR SUNNY     76  57  52 CALM      29.98F
ARBOR VITAE    MOSUNNY   77  58  51 CALM      29.99S
WOODRUFF       MOSUNNY   77  58  51 CALM      29.99S
RHINELANDER    MOSUNNY   80  51  36 CALM      29.99S HX  80
6HR MIN TEMP:  58; 6HR MAX TEMP:  80;

EAGLE RIVER    SUNNY     75  52  43 CALM      29.98F
LAND O LAKES   PTSUNNY   75  53  45 CALM      29.99F
PHILLIPS       MOSUNNY   78  57  48 SW5       29.97F
TOMAHAWK       SUNNY     77  55  47 CALM      29.98F
MEDFORD        PTSUNNY   77  61  57 S3        29.98F
MERRILL        SUNNY     78  60  53 S3        29.98S
$$

WIZ029-030-035-036-043>047-041900-
CENTRAL WISCONSIN

CITY           SKY/WX    TMP DP  RH WIND       PRES   REMARKS
WAUSAU         MOSUNNY   78  59  51 S5        29.96S
6HR MIN TEMP:  60; 6HR MAX TEMP:  79;

MOSINEE        MOSUNNY   77  63  61 VRB5      29.99S
MARSHFIELD     MOSUNNY   80  61  52 VRB3      29.98S HX  81
6HR MIN TEMP:  62; 6HR MAX TEMP:  80;

STEVENS POINT  SUNNY     76  61  59 CALM      29.98S
WAUPACA        MOSUNNY   82  63  53 S6        29.98S HX  83
WAUTOMA        NOT AVBL
WISC RAPIDS    SUNNY     80  62  54 W7        29.99S HX  81
6HR MIN TEMP:  62; 6HR MAX TEMP:  80;

CAMP DOUGLAS   NOT AVBL
$$

WIZ011>013-019>022-031-037>040-048>050-041900-
NORTHEAST WISCONSIN

CITY           SKY/WX    TMP DP  RH WIND       PRES   REMARKS
ANTIGO         PTSUNNY   76  60  58 SE3       29.99S
SHAWANO        SUNNY     79  64  59 NE5       29.97S HX  80
OCONTO         SUNNY     76  63  65 SE7       29.98R
STURGEON BAY   MOSUNNY   72  61  68 SE7       30.01S
6HR MIN TEMP:  63; 6HR MAX TEMP:  72;

GREEN BAY      MOSUNNY   79  63  57 E3        29.98R HX  80
6HR MIN TEMP:  63; 6HR MAX TEMP:  80;

MANITOWOC      NOT AVBL
APPLETON       PTSUNNY   75  59  57 SW5       29.99R
CLINTONVILLE   MOSUNNY   79  61  53 S5        29.97S HX  80
OSHKOSH        MOSUNNY   78  61  55 SW7       29.98S HX  80
6HR MIN TEMP:  65; 6HR MAX TEMP:  79;

$$

WIZ032>034-041-042-053>061-041900-
SOUTHWEST WISCONSIN

CITY           SKY/WX    TMP DP  RH WIND       PRES   REMARKS
LA CROSSE      SUNNY     81  59  47 SE9       29.96F HX  81
6HR MIN TEMP:  63; 6HR MAX TEMP:  81;

SPARTA         SUNNY     81  58  44 W5        29.98S HX  81
VIROQUA        SUNNY     78  58  50 SW7       30.00S
BOSCOBEL       SUNNY     81  59  47 VRB7      29.99S HX  81
6HR MIN TEMP:  58; 6HR MAX TEMP:  82;

PRAIRIE DU CHI SUNNY     78  57  47 SE6       29.99S
PLATTEVILLE    SUNNY     78  59  51 SW8       30.01S
$$

WIZ056-057-062-063-064-067-068-041900-
SOUTH CENTRAL WISCONSIN

CITY           SKY/WX    TMP DP  RH WIND       PRES   REMARKS
REEDSBURG      SUNNY     79  60  52 S6        29.98S HX  80
BARABOO/DELLS  SUNNY     79  56  45 S5        29.99S
LONE ROCK      NOT AVBL
MINERAL POINT  SUNNY     79  55  44 CALM      30.01F
MADISON        MOSUNNY   79  57  46 VRB7      29.99S HX  80
6HR MIN TEMP:  60; 6HR MAX TEMP:  79;

MIDDLETON      SUNNY     80  56  43 W5        30.00S HX  80
WATERTOWN      SUNNY     77  60  56 SW3       29.99S
MONROE         SUNNY     77  55  47 W6        30.01S
JANESVILLE     MOSUNNY   79  59  50 SW8       29.99F HX  80
$$

WIZ051-052-058>065-066-070>072-041900-
SOUTHEAST WISCONSIN

CITY           SKY/WX    TMP DP  RH WIND       PRES   REMARKS
MILWAUKEE      MOSUNNY   79  58  48 CALM      29.99S HX  80
6HR MIN TEMP:  65; 6HR MAX TEMP:  80;

WAUKESHA       MOSUNNY   75  57  53 SW6       30.01S
MILWAUKEE/TIMM SUNNY     79  54  41 MISG      30.00S
RACINE         SUNNY     79  60  52 SE10      30.01S HX  80
6HR MIN TEMP:  62; 6HR MAX TEMP:  79;

BURLINGTON     MOSUNNY   76  58  53 CALM      30.00F
KENOSHA        MOSUNNY   78  60  53 S3        30.00F
6HR MIN TEMP:  60; 6HR MAX TEMP:  79;

FOND DU LAC    PTSUNNY   80  62  54 CALM      29.98F HX  81
6HR MIN TEMP:  62; 6HR MAX TEMP:  80;

SHEBOYGAN      PTSUNNY   79  61  53 NW7       29.98S HX  80
6HR MIN TEMP:  63; 6HR MAX TEMP:  80;

WEST BEND      MOSUNNY   79  59  50 S6        29.99S HX  80
JUNEAU         SUNNY     76  61  59 S6        30.01S
$$

LSZ147-162-041900-
LAKE SUPERIOR

STATION/POSITION TIME  TEMP    WIND        PRES    WAVE
                       AIR SEA DIR/SP/G            HT/PER
                 (UTC) (F)     (DEG/KT/KT) (MB)    (FT/S)
W MID LAKE BUOY  1650   42 39   50/  6/  6 1015.8S   0
DEVILS ISLAND    1700   58      80/  7/  7 1015.4F
SAXON HARBOR     1740   63        CALM     1014.9S
$$

LMZ867-665-643>646-041900-
LAKE MICHIGAN

STATION/POSITION TIME  TEMP    WIND        PRES    WAVE
                       AIR SEA DIR/SP/G            HT/PER
                 (UTC) (F)     (DEG/KT/KT) (MB)    (FT/S)
CHAMBERS ISLAND  1700   68     360/  5/  6 1015.2S
S GREEN BAY BUOY 1730   68 70   30/ 10/ 12 1016.5
N MID LAKE BUOY  1650   54 45   CALM  /  2 1015.5S   1
NORTHPORT PIER   1700   62     140/  6/  7 1015.2S
SISTER BAY       1714   71     360/  6/  7   N/A
ALGOMA LAKESHORE 1610           70/ 12/ 14   N/A
KEWAUNEE LAKESHO 1700   63      40/  7/ 10 1014.9R
SHEBOYGAN LAKESH 1700   66     140/  8/  8 1015.3R
PORT WASHINGTON  1740   70     170/  3/  4 1015.9R
ATWATER BUOY     1700   66 61  120/  6/  8 1016.8R
MILWAUKEE LAKESH 1700   69      80/  2/  4   N/A
KENOSHA   LAKESH 1700   68     170/  6/ 11 1015.6S
$$

TC  - TEMPERATURE IN CELSIUS
VSB - VISIBILITY IN STATUTE MILES
WCI - WIND CHILL INDEX
HX  - HEAT INDEX



USA.gov is the U.S. government's official web portal to all federal, state and local government web resources and services.